SCP
0 0 0 0 0 0 0 0 0 0 0 0 0 0 0 0 0 0 0 0 0 0 0 0 0 0 0 0 0 0 0 0
0 0 0 0 0 0 0 0 0 0 0 0 0 0 0 0 0 0 0 0 0 0 0 0 0 0 0 0 0 0 0 0
0 0 0 0 0 0 0 0 0 0 0 0 0 0 0 0 0 0 0 0 0 0 0 0 0 0 0 0 0 0 0 0
0 0 0 0 0 0 0 0 0 0 0 0 0 0 0 0 0 0 0 0 0 0 0 0 0 0 0 0 0 0 0 0
0 0 0 0 0 0 0 0 0 0 0 0 0 0 0 0 0 0 0 0 0 0 0 0 0 0 0 0 0 0 0 0
0 0 0 0 0 0 0 0 0 0 0 0 0 0 0 0 0 0 0 0 0 0 0 0 0 0 0 0 0 0 0 0
0 0 0 0 0 0 0 0 0 0 0 0 0 0 0 0 0 0 0 0 0 0 0 0 0 0 0 0 0 0 0 0
0 0 0 0 0 0 0 0 0 0 0 0 0 0 0 0 0 0 0 0 0 0 0 0 0 0 0 0 0 0 0 0
0 0 0 0 0 0 0 0 0 0 0 0 0 0 0 0 0 0 0 0 0 0 0 0 0 0 0 0 0 0 0 0
0 0 0 0 0 0 0 0 0 0 0 0 0 0 0 0 0 0 0 0 0 0 0 0 0 0 0 0 0 0 0 0
0 0 0 0 0 0 0 0 0 0 0 0 0 0 0 0 0 0 0 0 0 0 0 0 0 0 0 0 0 0 0 0
0 0 0 0 0 0 0 0 0 0 0 0 0 0 0 0 0 0 0 0 0 0 0 0 0 0 0 0 0 0 0 0
0 0 0 0 0 0 0 0 0 0 0 0 0 0 0 0 0 0 0 0 0 0 0 0 0 0 0 0 0 0 0 0
0 0 0 0 0 0 0 0 0 0 0 0 0 0 0 0 0 0 0 0 0 0 0 0 0 0 0 0 0 0 0 0
0 0 0 0 0 0 0 0 0 0 0 0 0 0 0 0 0 0 0 0 0 0 0 0 0 0 0 0 0 0 0 0
0 0 0 0 0 0 0 0 0 0 0 0 0 0 0 0 0 0 0 0 0 0 0 0 0 0 0 0 0 0 0 0
0 0 0 0 0 0 0 0 0 0 0 0 0 0 0 0 0 0 0 0 0 0 0 0 0 0 0 0 0 0 0 0
0 0 0 0 0 0 0 0 0 0 0 0 0 0 0 0 0 0 0 0 0 0 0 0 0 0 0 0 0 0 0 0
0 0 0 0 0 0 0 0 0 0 0 0 0 0 0 0 0 0 0 0 0 0 0 0 0 0 0 0 0 0 0 0
0 0 0 0 0 0 0 0 0 0 0 0 0 0 0 0 0 0 0 0 0 0 0 0 0 0 0 0 0 0 0 0
Wind_Speed_500mb
43 32 18 13 19 22 21 13 11 9 7 7 6 6 7 9 13 20 28 34 40 42 43 44 44 41 41 42 42 43 45 47
31 33 37 33 29 24 16 8 6 4 3 4 4 4 8 14 21 30 37 40 40 41 40 39 40 40 41 42 43 45 45 46
44 46 42 32 24 18 14 11 8 3 2 1 3 9 16 24 33 36 37 37 36 34 35 35 37 38 38 38 40 43 45 47
57 55 44 39 33 26 19 15 10 7 4 2 9 17 26 32 32 32 31 31 31 32 33 35 35 35 37 41 44 47 50 52
60 54 48 38 31 26 20 14 9 7 6 7 16 24 27 28 27 26 26 27 29 32 33 34 37 39 43 47 47 48 48 51
64 55 47 40 32 24 19 16 14 12 8 14 21 23 24 24 24 24 24 27 28 30 33 36 40 44 45 45 48 50 51 51
54 47 45 39 31 25 21 17 14 10 14 18 21 21 21 21 22 25 27 27 28 30 34 37 39 41 45 49 50 51 52 53
48 45 42 37 32 26 20 17 16 17 18 21 21 21 21 22 24 25 26 29 30 32 34 35 37 45 48 49 48 46 48 54
46 42 41 37 32 26 22 20 19 19 21 21 22 22 23 25 26 28 29 29 31 32 33 37 42 46 48 46 44 46 51 56
43 41 40 35 31 26 23 21 19 21 22 23 25 25 25 25 27 28 30 31 32 34 36 39 42 43 45 46 47 49 53 59
37 37 35 33 28 23 20 20 23 24 25 26 26 27 26 27 28 31 32 33 35 36 39 41 41 42 43 46 50 56 63 67
30 31 31 27 22 21 23 25 27 26 26 27 28 27 28 30 33 34 35 33 34 36 39 40 40 40 41 45 52 58 64 68
25 25 24 22 22 25 29 31 28 25 26 27 29 31 32 33 35 35 35 34 34 33 33 36 38 42 44 47 51 57 64 67
25 25 22 25 28 30 32 31 27 27 28 30 34 34 33 35 36 36 36 35 35 34 34 35 37 39 45 50 57 61 62 72
27 26 26 30 32 33 34 32 31 33 33 35 36 35 36 36 36 34 33 34 35 37 37 37 38 42 48 55 62 67 73 79
32 32 29 36 37 38 39 38 36 38 38 39 39 38 36 35 33 32 33 33 36 37 38 39 40 44 51 54 55 56 65 73
38 38 35 41 42 45 45 42 41 44 44 42 40 37 34 33 32 30 33 34 34 34 36 36 41 47 52 48 45 61 67 69
41 40 40 46 48 49 49 49 47 46 46 42 39 38 35 32 29 29 28 29 31 33 35 38 43 49 54 58 63 61 62 63
42 45 47 52 50 48 51 51 49 47 44 41 39 38 35 32 29 27 27 27 30 32 36 41 46 51 56 61 64 61 56 57
47 50 53 53 49 50 50 51 50 46 42 40 38 36 33 30 28 27 27 28 29 29 33 41 45 49 51 56 59 61 62 61
Wind_Direction_500mb
138 136 179 152 184 186 186 176 141 114 89 59 39 20 17 10 346 335 334 329 328 328 331 332 333 334 336 336 337 338 336 336
146 168 167 175 186 186 168 156 138 119 97 40 11 357 351 335 329 330 328 328 329 330 331 332 334 338 339 338 339 339 339 337
182 180 180 177 186 182 182 187 184 144 23 7 322 330 330 327 327 327 326 327 330 333 335 336 337 339 340 341 341 342 341 341
182 183 177 189 193 195 196 195 196 202 219 311 327 324 321 320 323 325 329 331 335 336 336 338 340 341 344 347 348 348 346 344
186 182 187 192 198 199 199 198 209 217 228 291 310 313 316 317 322 324 329 332 334 336 338 340 344 347 349 349 346 347 348 348
186 188 193 199 201 200 201 206 209 212 256 298 305 309 312 316 320 324 331 334 336 340 341 343 344 344 345 346 349 350 352 351
192 199 205 205 204 202 206 210 211 239 280 290 300 302 310 318 325 331 331 332 337 339 341 342 341 342 347 350 350 350 350 350
204 211 209 209 208 207 207 212 227 260 281 294 299 311 317 320 324 324 326 329 334 335 336 338 343 347 346 346 346 345 349 352
223 219 215 213 210 211 213 221 248 272 288 295 305 311 311 315 318 319 319 325 328 330 335 340 345 344 339 338 341 347 348 345
232 224 216 210 209 214 220 239 265 285 290 297 302 301 302 305 311 316 323 328 325 331 337 341 338 335 335 337 341 340 338 338
206 201 199 202 209 220 242 264 278 280 284 291 295 296 301 309 315 321 321 324 328 330 334 333 332 333 336 335 336 334 334 334
184 190 196 204 216 239 259 272 275 277 287 294 295 300 309 314 317 318 321 322 326 328 328 329 329 329 330 331 334 335 334 334
191 199 206 219 242 258 266 270 269 277 288 292 302 305 307 311 316 316 315 319 321 323 325 326 327 326 327 330 333 334 334 332
207 214 227 247 257 268 272 268 270 280 288 296 298 300 306 309 309 313 316 317 318 322 324 323 323 324 327 330 332 332 332 329
224 239 254 263 269 273 268 268 274 282 289 291 292 297 299 305 310 312 314 315 317 319 321 325 326 326 326 331 332 333 330 325
250 256 264 269 276 281 270 269 274 281 286 286 290 294 301 305 306 308 309 312 316 319 324 327 328 330 334 334 335 328 325 325
264 266 275 277 281 280 273 274 275 278 282 286 291 296 300 301 303 305 309 312 314 316 320 325 327 331 332 333 327 330 329 330
273 275 269 275 278 280 275 273 275 279 282 287 292 295 297 298 300 304 305 306 311 312 315 321 327 331 331 327 328 329 327 327
265 263 271 276 279 278 274 274 276 277 282 287 290 294 297 298 297 296 296 299 302 306 312 319 324 329 330 327 326 325 327 330
265 267 277 280 282 276 275 275 275 277 280 284 289 292 292 293 293 294 296 299 297 299 306 312 319 326 326 326 326 328 330 332
Wind_Speed_850mb
43 32 18 13 19 22 21 13 11 9 7 7 6 6 7 9 13 20 28 34 40 42 43 44 44 41 41 42 42 43 45 47
31 33 37 33 29 24 16 8 6 4 3 4 4 4 8 14 21 30 37 40 40 41 40 39 40 40 41 42 43 45 45 46
44 46 42 32 24 18 14 11 8 3 2 1 3 9 16 24 33 36 37 37 36 34 35 35 37 38 38 38 40 43 45 47
57 55 44 39 33 26 19 15 10 7 4 2 9 17 26 32 32 32 31 31 31 32 33 35 35 35 37 41 44 47 50 52
60 54 48 38 31 26 20 14 9 7 6 7 16 24 27 28 27 26 26 27 29 32 33 34 37 39 43 47 47 48 48 51
64 55 47 40 32 24 19 16 14 12 8 14 21 23 24 24 24 24 24 27 28 30 33 36 40 44 45 45 48 50 51 51
54 47 45 39 31 25 21 17 14 10 14 18 21 21 21 21 22 25 27 27 28 30 34 37 39 41 45 49 50 51 52 53
48 45 42 37 32 26 20 17 16 17 18 21 21 21 21 22 24 25 26 29 30 32 34 35 37 45 48 49 48 46 48 54
46 42 41 37 32 26 22 20 19 19 21 21 22 22 23 25 26 28 29 29 31 32 33 37 42 46 48 46 44 46 51 56
43 41 40 35 31 26 23 21 19 21 22 23 25 25 25 25 27 28 30 31 32 34 36 39 42 43 45 46 47 49 53 59
37 37 35 33 28 23 20 20 23 24 25 26 26 27 26 27 28 31 32 33 35 36 39 41 41 42 43 46 50 56 63 67
30 31 31 27 22 21 23 25 27 26 26 27 28 27 28 30 33 34 35 33 34 36 39 40 40 40 41 45 52 58 64 68
25 25 24 22 22 25 29 31 28 25 26 27 29 31 32 33 35 35 35 34 34 33 33 36 38 42 44 47 51 57 64 67
25 25 22 25 28 30 32 31 27 27 28 30 34 34 33 35 36 36 36 35 35 34 34 35 37 39 45 50 57 61 62 72
27 26 26 30 32 33 34 32 31 33 33 35 36 35 36 36 36 34 33 34 35 37 37 37 38 42 48 55 62 67 73 79
32 32 29 36 37 38 39 38 36 38 38 39 39 38 36 35 33 32 33 33 36 37 38 39 40 44 51 54 55 56 65 73
38 38 35 41 42 45 45 42 41 44 44 42 40 37 34 33 32 30 33 34 34 34 36 36 41 47 52 48 45 61 67 69
41 40 40 46 48 49 49 49 47 46 46 42 39 38 35 32 29 29 28 29 31 33 35 38 43 49 54 58 63 61 62 63
42 45 47 52 50 48 51 51 49 47 44 41 39 38 35 32 29 27 27 27 30 32 36 41 46 51 56 61 64 61 56 57
47 50 53 53 49 50 50 51 50 46 42 40 38 36 33 30 28 27 27 28 29 29 33 41 45 49 51 56 59 61 62 61
Wind_Direction_850mb
138 136 179 152 184 186 186 176 141 114 89 59 39 20 17 10 346 335 334 329 328 328 331 332 333 334 336 336 337 338 336 336
146 168 167 175 186 186 168 156 138 119 97 40 11 357 351 335 329 330 328 328 329 330 331 332 334 338 339 338 339 339 339 337
182 180 180 177 186 182 182 187 184 144 23 7 322 330 330 327 327 327 326 327 330 333 335 336 337 339 340 341 341 342 341 341
182 183 177 189 193 195 196 195 196 202 219 311 327 324 321 320 323 325 329 331 335 336 336 338 340 341 344 347 348 348 346 344
186 182 187 192 198 199 199 198 209 217 228 291 310 313 316 317 322 324 329 332 334 336 338 340 344 347 349 349 346 347 348 348
186 188 193 199 201 200 201 206 209 212 256 298 305 309 312 316 320 324 331 334 336 340 341 343 344 344 345 346 349 350 352 351
192 199 205 205 204 202 206 210 211 239 280 290 300 302 310 318 325 331 331 332 337 339 341 342 341 342 347 350 350 350 350 350
204 211 209 209 208 207 207 212 227 260 281 294 299 311 317 320 324 324 326 329 334 335 336 338 343 347 346 346 346 345 349 352
223 219 215 213 210 211 213 221 248 272 288 295 305 311 311 315 318 319 319 325 328 330 335 340 345 344 339 338 341 347 348 345
232 224 216 210 209 214 220 239 265 285 290 297 302 301 302 305 311 316 323 328 325 331 337 341 338 335 335 337 341 340 338 338
206 201 199 202 209 220 242 264 278 280 284 291 295 296 301 309 315 321 321 324 328 330 334 333 332 333 336 335 336 334 334 334
184 190 196 204 216 239 259 272 275 277 287 294 295 300 309 314 317 318 321 322 326 328 328 329 329 329 330 331 334 335 334 334
191 199 206 219 242 258 266 270 269 277 288 292 302 305 307 311 316 316 315 319 321 323 325 326 327 326 327 330 333 334 334 332
207 214 227 247 257 268 272 268 270 280 288 296 298 300 306 309 309 313 316 317 318 322 324 323 323 324 327 330 332 332 332 329
224 239 254 263 269 273 268 268 274 282 289 291 292 297 299 305 310 312 314 315 317 319 321 325 326 326 326 331 332 333 330 325
250 256 264 269 276 281 270 269 274 281 286 286 290 294 301 305 306 308 309 312 316 319 324 327 328 330 334 334 335 328 325 325
264 266 275 277 281 280 273 274 275 278 282 286 291 296 300 301 303 305 309 312 314 316 320 325 327 331 332 333 327 330 329 330
273 275 269 275 278 280 275 273 275 279 282 287 292 295 297 298 300 304 305 306 311 312 315 321 327 331 331 327 328 329 327 327
265 263 271 276 279 278 274 274 276 277 282 287 290 294 297 298 297 296 296 299 302 306 312 319 324 329 330 327 326 325 327 330
265 267 277 280 282 276 275 275 275 277 280 284 289 292 292 293 293 294 296 299 297 299 306 312 319 326 326 326 326 328 330 332